Regional Weather Roundup
Issued by NWS

Home | Current Version | Previous Version | Graphics & Text | Print | Product List | Glossary On
Versions: 1 2 3 4 5 6 7 8 9 10 11 12 13 14 15 16 17 18 19 20 21 22 23 24 25 26 27 28 29 30 31 32 33 34 35 36 37 38 39 40 41 42 43 44 45
000
ASUS45 KSLC 260210
RWRUT

UTAH REGIONAL WEATHER ROUNDUP
NATIONAL WEATHER SERVICE SALT LAKE CITY UT
700 PM MST THU DEC 25 2014

UTZ001>011-023>025-260300-

NORTHERN UTAH

CITY           SKY/WX    TMP DP  RH WIND       PRES   REMARKS
BRIGHAM CITY   CLOUDY    28  24  83 N8        29.80R WCI  20
HILL AFB       CLOUDY    27  27 100 N13       29.76R WCI  16
LOGAN          CLOUDY    26  23  88 N13       29.79R WCI  15
OGDEN          CLOUDY    27  25  92 N15G22    29.77R WCI  15
PROVO AIRPORT  CLOUDY    28  25  86 W13       29.76R WCI  18
SALT LAKE CITY CLOUDY    29  27  92 NW10      29.78R WCI  20
VERNAL         CLOUDY    27  15  61 NE17      29.65R WCI  14
WENDOVER       CLOUDY    28  19  69 NW22      29.86R WCI  15
HEBER CITY     CLOUDY    21  19  93 CALM      29.70R
WEST JORDAN    CLOUDY    28  28 100 NW12      29.77R WCI  18

$$

UTZ012>022-026-027-260300-

SOUTHERN/CENTRAL UTAH

CITY           SKY/WX    TMP DP  RH WIND       PRES   REMARKS
BLANDING       PTCLDY    27  20  73 NW9       29.70R WCI  18
BRYCE CANYON   CLOUDY    14  10  84 NW9       29.66R WCI   2
CEDAR CITY     LGT SNOW  19  17  92 CALM      29.76R FOG
DELTA          CLOUDY    27  26  96 MISG      29.79R
MILFORD        LGT SNOW  24  22  91 N7        29.78R FOG     WCI  16
MOAB/CYNLANDS  LGT SNOW  29  26  89 W10       29.66R FOG     WCI  20
PRICE          CLOUDY    28  12  51 NW13      29.63R WCI  17
ST GEORGE      CLOUDY    37  19  48 W5        29.81S WCI  34
KANAB          MOCLDY    21  21 100 CALM      29.79R

$$

REGIONAL REPORTS     COLORADO/ARIZONA

CITY           SKY/WX    TMP DP  RH WIND       PRES   REMARKS
CRAIG, CO      CLOUDY    26  23  88 SW9       29.60R WCI  17
GRAND JUNCTION CLOUDY    28  26  92 N13       29.63R WCI  17
RIFLE          LGT SNOW  30  28  92 W12       29.60R VSB 3/4 WCI  20
MONTROSE       MOCLDY    29  27  92 NE8       29.63R WCI  21
CORTEZ         PTCLDY    29  19  66 W5        29.64R WCI  24
PAGE, AZ       MOCLDY    36  16  44 W6        29.69R WCI  31
GRAND CANYON   PTCLDY    21   5  50 VRB3      29.70R
KINGMAN        CLOUDY    37   6  27 N6        29.81R WCI  32
FLAGSTAFF      PTCLDY    23  10  57 NW12G21   29.68R WCI  12

$$

REGIONAL REPORTS    NEVADA/IDAHO/WYOMING

CITY           SKY/WX    TMP DP  RH WIND       PRES   REMARKS
LAS VEGAS, NV  PTCLDY    47  14  26 NW15      29.81R
ELY            LGT SNOW  21  19  92 N12       29.82R FOG     WCI   9
ELKO           CLOUDY    26  18  71 S5        29.93R WCI  20
POCATELLO, ID  CLOUDY    27  19  72 N7        29.85R WCI  19
BURLEY         CLOUDY    28  21  75 W16G24    29.86R WCI  16
EVANSTON, WY   FLURRIES  18  14  84 E15G24    29.66S WCI   4
ROCK SPRINGS   LGT SNOW  16  13  88 NE25G33   29.68R FOG     WCI  -3

$$



USA.gov is the U.S. government's official web portal to all federal, state and local government web resources and services.